Weather History for London City, United Kingdom

Change the Weather History Date:

Sunday, June 30, 2013

  Actual Average Record
Temperature  
Mean Temperature 69 °F -  
Max Temperature 78 °F 67 °F 80 °F (2006)
Min Temperature 60 °F 56 °F 51 °F (1997)
Cooling Degree Days 4    
Growing Degree Days 19 (Base 50)    
Moisture  
Dew Point 53 °F    
Average Humidity 60    
Maximum Humidity 88    
Minimum Humidity 32    
Precipitation  
Precipitation 0.00 in - - ()
Sea Level Pressure  
Sea Level Pressure 30.15 in    
Wind  
Wind Speed 10 mph ()    
Max Wind Speed 18 mph    
Max Gust Speed 26 mph    
Visibility 6.2 miles    
Events      
Averages and records for this station are not official NWS values.
T = Trace of Precipitation, MM = Missing Value Source: Averaged Metar Reports

Daily Weather History Graph

Daily Weather History Graph

Search for Another Location

Airport:

Trip Planner

Search our weather history database for the weather conditions in past years. The results will help you decide how hot, cold, wet, or windy it might be!

Date:

Astronomy

Jun. 30, 2013 Rise Set
Actual Time 4:46 AM BST 9:20 PM BST
Civil Twilight 3:58 AM BST 10:07 PM BST
Nautical Twilight 2:46 AM BST 11:20 PM BST
Astronomical Twilight 1:35 AM BST 12:31 AM BST
Moon 12:16 AM BST (6/30) 1:45 PM BST (6/30)
Length of Visible Light 18h 08m
Length of Day
16h 34m
Waning Gibbous, 48% of the Moon is Illuminated
Jun 30
Waning Gibbous
Jul 8
New
Jul 16
First Quarter
Jul 22
Full
Jul 29
Last Quarter

Hourly Weather History & Observations

Time (BST) Temp. Dew Point Humidity Pressure Visibility Wind Dir Wind Speed Gust Speed Precip Events Conditions
12:20 AM 66.2 °F 53.6 °F 64% 30.24 in 6.2 mi West 9.2 mph - N/A   Mostly Cloudy
12:50 AM 66.2 °F 53.6 °F 64% 30.24 in 6.2 mi WNW 6.9 mph - N/A   Partly Cloudy
1:20 AM 64.4 °F 55.4 °F 73% 30.24 in 6.2 mi WNW 5.8 mph - N/A   Unknown
1:50 AM 64.4 °F 53.6 °F 68% 30.24 in 6.2 mi WNW 6.9 mph - N/A   Mostly Cloudy
2:20 AM 64.4 °F 55.4 °F 73% 30.24 in 6.2 mi WNW 6.9 mph - N/A   Scattered Clouds
2:50 AM 64.4 °F 55.4 °F 73% 30.24 in 6.2 mi West 6.9 mph - N/A   Mostly Cloudy
3:20 AM 64.4 °F 55.4 °F 73% 30.21 in 6.2 mi West 10.4 mph - N/A   Mostly Cloudy
3:50 AM 64.4 °F 55.4 °F 73% 30.21 in 6.2 mi West 10.4 mph - N/A   Partly Cloudy
4:20 AM 62.6 °F 55.4 °F 77% 30.21 in 6.2 mi WSW 5.8 mph - N/A   Unknown
4:50 AM 60.8 °F 57.2 °F 88% 30.21 in 6.2 mi WSW 8.1 mph - N/A   Unknown
5:20 AM 60.8 °F 57.2 °F 88% 30.21 in 6.2 mi WSW 9.2 mph - N/A   Unknown
5:50 AM 60.8 °F 57.2 °F 88% 30.21 in 6.2 mi WSW 8.1 mph - N/A   Unknown
6:20 AM 60.8 °F 57.2 °F 88% 30.21 in 6.2 mi WSW 8.1 mph - N/A   Unknown
6:50 AM 62.6 °F 57.2 °F 82% 30.21 in 6.2 mi WSW 8.1 mph - N/A   Unknown
7:20 AM 64.4 °F 57.2 °F 77% 30.21 in 6.2 mi WSW 8.1 mph - N/A   Unknown
7:50 AM 64.4 °F 57.2 °F 77% 30.21 in 6.2 mi WSW 10.4 mph - N/A   Unknown
8:20 AM 64.4 °F 57.2 °F 77% 30.21 in 6.2 mi WSW 10.4 mph - N/A   Unknown
8:50 AM 66.2 °F 57.2 °F 73% 30.21 in 6.2 mi West 10.4 mph - N/A   Unknown
9:20 AM 66.2 °F 57.2 °F 73% 30.21 in 6.2 mi WSW 12.7 mph - N/A   Scattered Clouds
9:50 AM 68.0 °F 55.4 °F 64% 30.21 in 6.2 mi West 11.5 mph - N/A   Unknown
10:20 AM 68.0 °F 57.2 °F 68% 30.21 in 6.2 mi SW 10.4 mph - N/A   Unknown
10:50 AM 69.8 °F 55.4 °F 60% 30.21 in 6.2 mi WSW 10.4 mph - N/A   Partly Cloudy
11:20 AM 71.6 °F 55.4 °F 57% 30.18 in 6.2 mi WSW 11.5 mph - N/A   Scattered Clouds
11:50 AM 73.4 °F 55.4 °F 53% 30.18 in 6.2 mi WSW 13.8 mph - N/A   Scattered Clouds
12:20 PM 75.2 °F 55.4 °F 50% 30.15 in 6.2 mi WSW 12.7 mph - N/A   Scattered Clouds
12:50 PM 75.2 °F 53.6 °F 47% 30.15 in 6.2 mi WSW 12.7 mph - N/A   Scattered Clouds
1:20 PM 77.0 °F 53.6 °F 44% 30.15 in - West 16.1 mph - N/A   Clear
1:50 PM 77.0 °F 51.8 °F 41% 30.12 in 6.2 mi WSW 15.0 mph - N/A   Partly Cloudy
2:20 PM 78.8 °F 50.0 °F 36% 30.12 in - WSW 17.3 mph - N/A   Clear
2:50 PM 78.8 °F 51.8 °F 39% 30.12 in - WSW 15.0 mph - N/A   Clear
3:50 PM 78.8 °F 51.8 °F 39% 30.09 in - WSW 16.1 mph - N/A   Clear
4:20 PM 78.8 °F 51.8 °F 39% 30.09 in - WSW 13.8 mph - N/A   Clear
4:50 PM 78.8 °F 51.8 °F 39% 30.09 in - WSW 12.7 mph - N/A   Clear
5:20 PM 78.8 °F 48.2 °F 34% 30.06 in - West 13.8 mph - N/A   Clear
5:50 PM 78.8 °F 46.4 °F 32% 30.06 in - West 16.1 mph - N/A   Clear
6:20 PM 77.0 °F 48.2 °F 36% 30.06 in - WSW 16.1 mph - N/A   Clear
6:50 PM 77.0 °F 48.2 °F 36% 30.06 in - WSW 18.4 mph - N/A   Clear
7:20 PM 75.2 °F 48.2 °F 38% 30.06 in - West 17.3 mph - N/A   Clear
7:50 PM 73.4 °F 48.2 °F 41% 30.06 in - West 16.1 mph - N/A   Clear
8:20 PM 71.6 °F 50.0 °F 46% 30.06 in - West 15.0 mph 26.5 mph N/A   Clear
8:50 PM 69.8 °F 51.8 °F 53% 30.06 in - WSW 13.8 mph - N/A   Clear
9:20 PM 68.0 °F 51.8 °F 56% 30.06 in - WSW 11.5 mph - N/A   Clear
9:50 PM 68.0 °F 50.0 °F 52% 30.06 in 6.2 mi WSW 17.3 mph - N/A   Unknown
10:20 PM 66.2 °F 51.8 °F 60% 30.06 in 6.2 mi WSW 15.0 mph - N/A   Unknown
10:50 PM 64.4 °F 53.6 °F 68% 30.09 in 6.2 mi West 15.0 mph - N/A   Partly Cloudy
11:20 PM 62.6 °F 51.8 °F 68% 30.09 in 6.2 mi West 17.3 mph - N/A   Mostly Cloudy
11:50 PM 60.8 °F 50.0 °F 68% 30.09 in 6.2 mi West 16.1 mph - N/A   Overcast